Location: Beaurecueil
(43.5122°N, 5.5450°E)
Time: 21:04:12
(UTC+00:00)

Okean-O - Pass Details

Date: 18 September 2020
Orbit: 639 x 641 km, 98.2° (Epoch: 27 October)

Event Time Altitude Azimuth Distance (km) Brightness Sun altitude
Rises 18:04:58 0° 167° (SSE) 2,931 5.8 -5.0°
Reaches altitude 10° 18:07:09 10° 168° (SSE) 2,027 5.0 -5.4°
Maximum altitude 18:11:35 82° 257° (WSW) 653 2.8 -6.2°
Drops below altitude 10° 18:16:02 10° 345° (NNW) 2,043 5.6 -7.0°
Sets 18:18:15 0° 346° (NNW) 2,957 6.4 -7.4°
